Tracking 18840 objects as of 18-November-2017
HD Live streaming from Space Station
objects crossing your sky now

OPS 3148

Track OPS 3148 now!
OPS 3148 is classified as:


NORAD ID: 3889
Int'l Code: 1969-036A
Perigee: 31,965.8 km
Apogee: 39,566.1 km
Inclination: 6.9 °
Period: 1,434.7 minutes
Semi major axis: 42136 km
RCS: Unknown
Launch date: April 13, 1969
Source: United States (US)
Launch site: AIR FORCE EASTERN TEST RANGE (AFETR)
aabbcc
Your satellite tracking list
Your tracking list is empty




NASA's NSSDC Master Catalog

Two Line Element Set (TLE):
1 03889U 69036A   17097.69920520 0.00000000  00000-0  00000-0 0    02
2 03889   6.9207  73.2727 0901855  98.5747 271.7348  1.00371128    05
Source of the keplerian elements: McCants